Regional Weather Roundup
Issued by NWS Sioux Falls, SD

Home | Current Version | Previous Version | Graphics & Text | Print | Product List | Glossary On
Versions: 1 2 3 4 5 6 7 8 9 10 11 12 13 14 15 16 17 18 19 20 21 22 23 24 25 26 27 28 29 30 31 32 33 34 35 36 37 38 39 40 41 42 43 44 45 46 47 48 49 50
000
ASUS43 KFSD 280202
RWRFSD

WEATHER ROUNDUP FOR SE SOUTH DAKOTA/SW MINNESOTA/NW IOWA
NATIONAL WEATHER SERVICE SIOUX FALLS SD
900 PM CDT THU AUG 27 2015

NOTE: "FAIR" INDICATES FEW OR NO CLOUDS BELOW 12,000 FEET WITH NO
SIGNIFICANT WEATHER AND OR OBSTRUCTIONS TO VISIBILITY.


SDZ038>040-050-052>070-280300-
SOUTHEAST SOUTH DAKOTA

CITY           SKY/WX    TMP DP  RH WIND       PRES   REMARKS
BROOKINGS      CLOUDY    70  63  78 SE12      29.98F
CHAMBERLAIN    MOCLDY    68  68  99 SE8       29.89F
HURON          CLOUDY    73  67  81 SE12      29.92R
MADISON        LGT RAIN  68  68 100 E10       29.97R
MITCHELL       LGT RAIN  70  69  97 E8        29.92R
SIOUX FALLS    TSTM      68  64  87 E14G24    29.96F FOG
WINNER         CLOUDY    72  69  90 E9        29.91R
YANKTON        CLOUDY    72  68  88 E12       29.91R
$$

MNZ071-072-080-081-089-090-097-098-280300-
SOUTHWEST MINNESOTA

CITY           SKY/WX    TMP DP  RH WIND       PRES   REMARKS
FAIRMONT       CLOUDY    64  57  77 S13       30.01S
JACKSON        CLOUDY    64  63  94 S10       30.01S
LUVERNE        TSTM      68  64  88 NE8       29.97S
MARSHALL       CLOUDY    70  63  78 S16       29.95F
MONTEVIDEO     CLOUDY    64  63  94 CALM      29.96F
PIPESTONE      CLOUDY    66  64  94 E8        29.98S
REDWOOD FALLS  CLOUDY    67  64  90 E5        29.95F
TRACY          CLOUDY    68  64  87 S12       29.97S
WINDOM         CLOUDY    66  61  82 S12       29.98S
WORTHINGTON    CLOUDY    64  61  88 SE8       30.00R
$$

IAZ001>003-012>014-020>022-031-032-NEZ013-014-SDZ071-280300-
NORTHWEST IOWA

CITY           SKY/WX    TMP DP  RH WIND       PRES   REMARKS
DENISON        MOCLDY    68  64  88 E8        29.94S
ESTHERVILLE    CLOUDY    64  61  90 S12       30.01F
LE MARS        LGT RAIN  68  68 100 E14G21    29.96R
ORANGE CITY    RAIN      66  64  94 E12G18    29.99R
SIOUX CITY     LGT RAIN  73  67  81 NE18G25   29.94R
SPENCER        HAZE      66  60  81 E12       30.01F VSB 1/2
$$

ABBREVIATIONS USED IN REMARKS
   TC - TEMPERATURE IN CELSIUS
  WCI - WIND CHILL INDEX
   HX - HEAT INDEX
  VSB - VISIBILITY




USA.gov is the U.S. government's official web portal to all federal, state and local government web resources and services.